This is the latest recevied weather packets stored in our database for station/object K7LER. If no packets are shown the sender has not sent any weather packets the latest 10 day(s).
| Time | Temp. | Humidity | Pressure | Rain* | Wind** | Luminosity | Snow |
|---|---|---|---|---|---|---|---|
| 1777760436 | 20.56° C | 49% | 1014.3 hPa | 0 mm | - | 737 W/m² | - |
| 1777760143 | 20.56° C | 50% | 1014.4 hPa | 0 mm | - | 744 W/m² | - |
| 1777759835 | 20.56° C | 51% | 1014.4 hPa | 0 mm | - | 752 W/m² | - |
| 1777759536 | 20.56° C | 51% | 1014.4 hPa | 0 mm | - | 756 W/m² | - |
| 1777759245 | 20.56° C | 51% | 1014.5 hPa | 0 mm | - | 756 W/m² | - |
| 1777758935 | 20° C | 52% | 1014.7 hPa | 0 mm | - | 763 W/m² | - |
| 1777758634 | 20° C | 51% | 1014.7 hPa | 0 mm | - | 761 W/m² | - |
| 1777758340 | 20° C | 52% | 1014.7 hPa | 0 mm | - | 772 W/m² | - |
| 1777758034 | 20° C | 54% | 1014.7 hPa | 0 mm | - | 772 W/m² | - |
| 1777757735 | 19.44° C | 54% | 1014.9 hPa | 0 mm | - | 772 W/m² | - |
| 1777757446 | 20° C | 55% | 1014.8 hPa | 0 mm | - | 779 W/m² | - |
| 1777757135 | 19.44° C | 56% | 1014.8 hPa | 0 mm | - | 770 W/m² | - |
| 1777756835 | 19.44° C | 58% | 1014.9 hPa | 0 mm | - | 765 W/m² | - |
| 1777756548 | 19.44° C | 59% | 1015.2 hPa | 0 mm | - | 770 W/m² | - |
| 1777756235 | 19.44° C | 59% | 1015.2 hPa | 0 mm | - | 773 W/m² | - |
| 1777755935 | 19.44° C | 60% | 1015.2 hPa | 0 mm | - | 756 W/m² | - |
| 1777755659 | 19.44° C | 61% | 1015.2 hPa | 0 mm | - | 761 W/m² | - |
| 1777755335 | 19.44° C | 61% | 1015.2 hPa | 0 mm | - | 766 W/m² | - |
| 1777755037 | 19.44° C | 61% | 1015.1 hPa | 0 mm | - | 770 W/m² | - |
| 1777754743 | 19.44° C | 61% | 1015.1 hPa | 0 mm | - | 796 W/m² | - |
| 1777754436 | 18.89° C | 63% | 1015.2 hPa | 0 mm | - | 802 W/m² | - |
| 1777754136 | 18.89° C | 62% | 1015.2 hPa | 0 mm | - | 793 W/m² | - |
| 1777753851 | 18.89° C | 62% | 1015.2 hPa | 0 mm | - | 814 W/m² | - |
| 1777753534 | 18.89° C | 63% | 1015.2 hPa | 0 mm | - | 814 W/m² | - |
| 1777753236 | 18.89° C | 64% | 1015.3 hPa | 0 mm | - | 795 W/m² | - |
* Rain latest hour (hover to see other rain measurements)
** Current wind speed in m/s (hover to see current wind gust speed)